User: anonymous   Login
Location: L�tisburg
(47.3947°N, 9.0820°E)
Time: 15:22:33
(UTC+00:00)
Language:

Okean 1-7 - Orbit

View from above orbital plane
View from above orbital plane
View from above satellite
View from above satellite

Ground track
Ground track

The orbit data is extracted from the following two-line orbital elements,

1 23317U 94066A   21138.45236610  .00000203  00000-0  19376-4 0  9998
2 23317  82.5396 211.8365 0019455 357.5543   2.5576 14.87916592438735
Epoch (UTC): 18 May 2021 10:51:24
Eccentricity: 0.0019455
inclination: 82.5396°
perigee height: 591 km
apogee height: 618 km
right ascension of ascending node: 211.8365°
argument of perigee: 357.5543°
revolutions per day: 14.87916592
mean anomaly at epoch: 2.5576°
orbit number at epoch: 43873

The dashed part of the orbit path shows where the satellite is in the earth's shadow,  

DLR